30 September 2014 Space
GT Aviation logo and link to the homepage
GT Aviation logo and link to the homepage Space
Space

GT Aviation UK - Airfield Weather Information

 

Weather information for EGHH


29 minutes ago, at 15:20 UTC, the wind was blowing at a speed of 3.6 meters per second (8.1 miles per hour) from West/Southwest in EGHH. The temperature was 19 degrees Celsius (66 degrees Fahrenheit), and the pressure was 1,024 hPa (30.24 inHg). The relative humidity was 72.7%. There were a few clouds at a height of 610 meter (2000 feet). The visibility was >11.3 kilometers (>7 miles).

The METAR this information has been retrieved from is: EGHH 301520Z 24007KT 9999 FEW020 19/14 Q1024

Search again?
Enter ICAO code: and show the report in
Don't know the ICAO code of the airport you want weather for?

To see a graphical view of the weather for EGHH, click here to visit SkyLinkWeather

 



GT Aviation UK
PO Box 15, WEYMOUTH DT4 8DS, UK
Email jane@gtaviation.co.uk Web www.gtaviation.co.uk

Use of this website constitutes acceptance of our User Agreement

TYNT INSIGHT technology is in use on this website to monitor text and pictures being copied from it. A record is kept only of the content copied.